Kingston, Jamaica

5:11 AM EST on April 26, 2017 (GMT -0500)
Norman Manley International

Weather History for MKJP - September, 2013

Change the Weather History Date:

Wednesday, September 18, 2013

  Actual Average Record
Temperature  
Mean Temperature 84 °F -  
Max Temperature 91 °F 87 °F 93 °F (2006)
Min Temperature 78 °F 78 °F 35 °F (2007)
Cooling Degree Days 20    
Growing Degree Days 34 (Base 50)    
Moisture  
Dew Point 77 °F    
Average Humidity 74    
Maximum Humidity 84    
Minimum Humidity 65    
Precipitation  
Precipitation 0.00 in - - ()
Sea Level Pressure  
Sea Level Pressure 29.87 in    
Wind  
Wind Speed 8 mph ()    
Max Wind Speed 22 mph    
Max Gust Speed -    
Visibility 7.7 miles    
Events Thunderstorm    
Averages and records for this station are not official NWS values.
T = Trace of Precipitation, MM = Missing Value Source: Averaged Metar Reports

Daily Weather History Graph

Daily Weather History Graph

Search for Another Location

Airport or City:

Trip Planner

Search our weather history database for the weather conditions in past years. The results will help you decide how hot, cold, wet, or windy it might be!

Date:

Astronomy

Sep. 18, 2013 Rise Set
Actual Time 5:55 AM EST 6:06 PM EST
Civil Twilight 5:33 AM EST 6:28 PM EST
Nautical Twilight 5:08 AM EST 6:53 PM EST
Astronomical Twilight 4:43 AM EST 7:18 PM EST
Moon 5:30 PM EST (9/18) 4:58 AM EST (9/18)
Length of Visible Light 12h 54m
Length of Day
12h 11m
Waxing Gibbous, 99% of the Moon is Illuminated
Sep 18
Waxing Gibbous
Sep 19
Full
Sep 26
Last Quarter
Oct 4
New
Oct 11
First Quarter

Hourly Weather History & Observations

Time (EST) Temp. Heat Index Dew Point Humidity Pressure Visibility Wind Dir Wind Speed Gust Speed Precip Events Conditions
12:00 AM 84.2 °F 92.3 °F 75.2 °F 74% 29.86 in 6.2 mi NNW 4.6 mph - N/A   Partly Cloudy
1:00 AM 83 °F - 76 °F 74% 29.87 in 12 mi NNW 5.8 mph - -   Haze
1:00 AM 82.4 °F 89.5 °F 75.2 °F 79% 29.86 in 6.2 mi NNW 5.8 mph - N/A   Partly Cloudy
2:00 AM 82.4 °F 89.5 °F 75.2 °F 79% 29.86 in 6.2 mi Variable 2.3 mph - N/A   Partly Cloudy
3:00 AM 82.4 °F 88.2 °F 73.4 °F 74% 29.83 in 6.2 mi NNE 4.6 mph - N/A   Partly Cloudy
4:00 AM 81 °F - 74 °F 75% 29.83 in 12 mi West 4.6 mph - -   Haze
4:00 AM 80.6 °F 86.2 °F 75.2 °F 84% 29.83 in 6.2 mi West 4.6 mph - N/A   Partly Cloudy
5:00 AM 82.4 °F 89.5 °F 75.2 °F 79% 29.83 in 6.2 mi NNE 4.6 mph - N/A   Partly Cloudy
6:00 AM 82.4 °F 88.2 °F 73.4 °F 74% 29.83 in 6.2 mi North 5.8 mph - N/A   Partly Cloudy
7:00 AM 83 °F - 75 °F 71% 29.84 in 14 mi North 8.1 mph - -   Haze
7:00 AM 82.4 °F 89.5 °F 75.2 °F 79% 29.83 in 6.2 mi North 8.1 mph - N/A   Partly Cloudy
8:00 AM 86.0 °F 95.1 °F 75.2 °F 70% 29.86 in 6.2 mi NNW 4.6 mph - N/A   Partly Cloudy
9:00 AM 86.0 °F 95.1 °F 75.2 °F 70% 29.86 in 6.2 mi NW 5.8 mph - N/A   Partly Cloudy
10:00 AM 89 °F - 79 °F 65% 29.89 in 12 mi SE 18.4 mph - -   Haze
10:00 AM 89.6 °F 104.7 °F 78.8 °F 70% 29.89 in 6.2 mi SE 18.4 mph - N/A   Partly Cloudy
11:00 AM 91.4 °F 107.2 °F 78.8 °F 66% 29.89 in 6.2 mi SE 21.9 mph - N/A   Partly Cloudy
12:00 PM 91.4 °F 107.2 °F 78.8 °F 66% 29.86 in 6.2 mi SE 21.9 mph - N/A   Partly Cloudy
1:00 PM 91 °F - 85 °F 79% 29.87 in 12 mi SSE 21.9 mph - -   Haze
1:00 PM 91.4 °F 122.4 °F 86.0 °F 84% 29.86 in 6.2 mi SSE 21.9 mph - N/A   Partly Cloudy
2:00 PM 91.4 °F 107.2 °F 78.8 °F 66% 29.86 in 6.2 mi SE 21.9 mph - N/A   Partly Cloudy
3:00 PM 87.8 °F 102.5 °F 78.8 °F 75% 29.83 in 6.2 mi SSE 18.4 mph - N/A   Scattered Clouds
4:00 PM 87 °F - 78 °F 67% 29.85 in 12 mi SE 18.4 mph - -   Partly Cloudy
4:00 PM 87.8 °F 99.7 °F 77.0 °F 70% 29.83 in 6.2 mi SE 18.4 mph - N/A   Scattered Clouds
5:00 PM 86.0 °F 99.3 °F 78.8 °F 79% 29.83 in 6.2 mi SE 17.3 mph - N/A   Mostly Cloudy
6:00 PM 86.0 °F 96.9 °F 77.0 °F 74% 29.86 in 6.2 mi SE 15.0 mph - N/A Thunderstorm Scattered Clouds
7:00 PM 87 °F - 81 °F 76% 29.91 in 11 mi East 12.7 mph - -   Haze
7:00 PM 86.0 °F 101.9 °F 80.6 °F 84% 29.89 in 6.2 mi East 12.7 mph - N/A   Partly Cloudy
8:00 PM 84.2 °F 92.3 °F 75.2 °F 74% 29.92 in 6.2 mi ESE 3.5 mph - N/A   Scattered Clouds
9:00 PM 84.2 °F 92.3 °F 75.2 °F 74% 29.92 in 6.2 mi NNW 4.6 mph - N/A   Partly Cloudy
10:00 PM 83 °F - 76 °F 74% 29.93 in 12 mi NNW 5.8 mph - -   Haze
10:00 PM 84.2 °F 92.3 °F 75.2 °F 74% 29.92 in 6.2 mi NNW 5.8 mph - N/A   Partly Cloudy
11:00 PM 82.4 °F 89.5 °F 75.2 °F 79% 29.92 in 6.2 mi NW 3.5 mph - N/A   Partly Cloudy